EW5678 Weather Reports


Display with metric or nautical units.
time (UTC)temp
F
wind
direction
speed
MPH
gust
MPH
rain 1hr
in
rain 24hr
in
rain mn
in
humidity
%
barometer
mb
20210801083900 67 123 2.0 4.0 0.00 0.00 0.00 84 996.5
20210801083000 67 123 3.0 5.0 0.00 0.00 0.00 83 996.5
20210801082100 67 124 2.0 5.0 0.00 0.00 0.00 83 996.5
20210801081200 67 123 3.0 6.0 0.00 0.00 0.00 85 996.6
20210801080300 67 124 4.0 6.0 0.00 0.00 0.00 84 996.3
20210801075400 67 124 5.0 7.0 0.00 0.00 0.00 83 996.4
20210801074500 67 124 6.0 7.0 0.00 0.00 0.00 83 996.4
20210801073600 67 124 6.0 8.0 0.00 0.00 0.00 83 996.4
20210801072700 67 124 6.0 9.0 0.00 0.00 0.00 83 996.3
20210801071800 67 124 7.0 9.0 0.00 0.00 0.00 83 996.2
20210801070900 67 124 6.0 9.0 0.00 0.00 0.00 83 996.2
20210801070000 67 124 6.0 8.0 0.00 0.00 0.00 83 996.3
20210801065100 67 124 7.0 9.0 0.00 0.00 0.00 82 996.4
20210801064200 68 123 7.0 11.0 0.00 0.00 0.00 82 996.6
20210801063300 68 123 6.0 9.0 0.00 0.00 0.00 83 996.6
20210801062400 68 123 7.0 11.0 0.00 0.00 0.00 83 996.7
20210801061500 68 123 7.0 12.0 0.00 0.00 0.00 82 996.7
20210801060600 68 123 8.0 11.0 0.00 0.00 0.00 83 996.8
20210801055700 68 124 8.0 11.0 0.00 0.00 0.00 81 996.9
20210801054800 68 124 7.0 11.0 0.00 0.00 0.00 82 996.9
20210801053900 68 123 7.0 12.0 0.00 0.00 0.00 82 997.0
20210801053000 68 123 7.0 12.0 0.00 0.00 0.00 80 997.0
20210801052100 68 123 8.0 12.0 0.00 0.00 0.00 79 997.0
20210801051200 68 123 9.0 12.0 0.00 0.00 0.00 79 997.2
20210801050300 68 123 6.0 11.0 0.00 0.00 0.00 78 997.1
20210801045400 68 124 7.0 11.0 0.00 0.00 0.00 78 997.1
20210801044500 68 124 7.0 10.0 0.00 0.00 0.00 78 997.3
20210801043600 68 123 5.0 10.0 0.00 0.00 0.00 78 997.4
20210801042700 68 123 5.0 8.0 0.00 0.00 0.00 77 997.4
20210801041800 68 123 5.0 10.0 0.00 0.00 0.00 77 997.4
20210801040900 68 123 6.0 11.0 0.00 0.00 0.00 77 997.3
20210801040000 68 123 7.0 11.0 0.00 0.00 0.00 76 997.5
20210801035100 69 124 6.0 10.0 0.00 0.00 0.00 76 997.3
20210801034200 68 123 5.0 9.0 0.00 0.00 0.00 76 997.3
20210801033300 68 123 6.0 9.0 0.00 0.00 0.00 76 997.3
20210801032400 69 123 6.0 10.0 0.00 0.00 0.00 75 997.3
20210801031500 68 123 7.0 9.0 0.00 0.00 0.00 75 997.3
20210801030600 68 123 7.0 10.0 0.00 0.00 0.00 75 997.3
20210801025700 68 123 5.0 10.0 0.00 0.00 0.00 75 997.4
20210801024800 68 123 6.0 11.0 0.00 0.00 0.00 75 997.4
20210801023900 68 123 6.0 9.0 0.00 0.00 0.00 75 997.5
20210801023000 68 124 6.0 9.0 0.00 0.00 0.00 74 997.5
20210801022100 69 124 7.0 10.0 0.00 0.00 0.00 74 997.7
20210801021200 69 124 7.0 9.0 0.00 0.00 0.00 73 997.7
20210801020300 68 124 8.0 11.0 0.00 0.00 0.00 73 997.6
20210801015400 69 123 8.0 11.0 0.00 0.00 0.00 73 997.6
20210801014500 69 124 7.0 10.0 0.00 0.00 0.00 72 997.6
20210801013600 69 124 7.0 10.0 0.00 0.00 0.00 72 997.5
20210801012700 69 124 8.0 11.0 0.00 0.00 0.00 71 997.6
20210801011800 69 124 7.0 11.0 0.00 0.00 0.00 71 997.5
20210801010900 69 124 7.0 10.0 0.00 0.00 0.00 70 997.4
20210801010000 69 124 6.0 9.0 0.00 0.00 0.00 69 997.3
20210801005100 70 123 3.0 8.0 0.00 0.00 0.00 68 997.2
20210801004200 69 123 1.0 4.0 0.00 0.00 0.00 68 997.1
20210801003300 70 123 0.0 3.0 0.00 0.00 0.00 66 996.9
20210801002400 71 123 0.0 1.0 0.00 0.00 0.00 63 996.9
20210801001500 70 123 0.0 2.0 0.00 0.00 0.00 62 997.0
20210801000600 71 124 2.0 4.0 0.00 0.00 0.00 62 996.9
20210731235700 71 123 3.0 6.0 0.00 0.00 0.00 61 996.9
20210731234800 71 124 4.0 5.0 0.00 0.00 0.00 61 996.9
20210731233900 71 124 5.0 7.0 0.00 0.00 0.00 58 996.8
20210731233000 71 124 5.0 8.0 0.00 0.00 0.00 60 996.8
20210731232100 71 124 4.0 8.0 0.00 0.00 0.00 60 996.8
20210731231200 71 124 7.0 10.0 0.00 0.00 0.00 60 996.7
20210731230300 71 123 9.0 10.0 0.00 0.00 0.00 56 996.6
20210731225400 71 123 8.0 11.0 0.00 0.00 0.00 58 996.7
20210731224500 71 124 8.0 13.0 0.00 0.00 0.00 56 996.7
20210731223600 71 124 6.0 12.0 0.00 0.00 0.00 56 996.7
20210731222700 72 124 8.0 11.0 0.00 0.00 0.00 56 996.6
20210731221800 72 123 6.0 12.0 0.00 0.00 0.00 55 996.6
20210731220900 72 123 7.0 12.0 0.00 0.00 0.00 56 996.6
20210731220000 72 123 9.0 13.0 0.00 0.00 0.00 55 996.6
20210731215100 72 123 11.0 16.0 0.00 0.00 0.00 55 996.6
20210731214200 72 123 12.0 19.0 0.00 0.00 0.00 56 996.9
20210731213300 71 123 14.0 19.0 0.00 0.00 0.00 55 996.9
20210731212400 71 123 18.0 24.0 0.00 0.00 0.00 55 997.0
20210731211501 71 124 16.0 23.0 0.00 0.00 0.00 53 997.1
20210731210600 72 123 14.0 23.0 0.00 0.00 0.00 54 997.1
20210731205700 71 123 13.0 23.0 0.00 0.00 0.00 53 997.0
20210731204800 72 123 13.0 19.0 0.00 0.00 0.00 55 997.1
20210731203900 71 123 14.0 21.0 0.00 0.00 0.00 52 997.1
20210731203000 71 123 17.0 23.0 0.00 0.00 0.00 54 997.2
20210731202101 71 123 14.0 23.0 0.00 0.00 0.00 53 997.3
20210731201201 71 124 17.0 22.0 0.00 0.00 0.00 54 997.4
20210731200300 70 124 16.0 22.0 0.00 0.00 0.00 54 997.4
20210731195400 71 123 14.0 23.0 0.00 0.00 0.00 53 997.3
20210731194501 70 124 17.0 25.0 0.00 0.00 0.00 54 997.3
20210731193600 70 124 18.0 24.0 0.00 0.00 0.00 54 997.3
20210731192701 70 124 15.0 23.0 0.00 0.00 0.00 54 997.3
20210731191800 70 124 11.0 20.0 0.00 0.00 0.00 56 997.5
20210731190900 70 124 10.0 18.0 0.00 0.00 0.00 59 997.6
20210731190000 69 125 14.0 21.0 0.00 0.00 0.00 57 997.6
20210731185100 69 125 13.0 18.0 0.00 0.00 0.00 57 997.6
20210731184201 69 125 14.0 20.0 0.00 0.00 0.00 59 997.6
20210731183300 69 126 16.0 21.0 0.00 0.00 0.00 59 997.7
20210731182401 69 126 13.0 20.0 0.00 0.00 0.00 56 997.7
20210731181501 68 126 12.0 19.0 0.00 0.00 0.00 61 997.6
20210731180601 69 126 8.0 15.0 0.00 0.00 0.00 61 997.5
20210731175701 69 126 10.0 17.0 0.00 0.00 0.00 59 997.5
20210731174801 68 126 9.0 18.0 0.00 0.00 0.00 59 997.7
20210731173901 68 126 9.0 18.0 0.00 0.00 0.00 57 997.7
20210731173001 68 126 9.0 14.0 0.00 0.00 0.00 59 997.8
20210731172101 68 126 8.0 12.0 0.00 0.00 0.00 58 997.8
20210731171201 67 126 7.0 15.0 0.00 0.00 0.00 59 998.0
20210731170301 67 126 10.0 14.0 0.00 0.00 0.00 57 998.1
20210731165401 68 126 7.0 15.0 0.00 0.00 0.00 57 998.2
20210731164501 68 126 10.0 15.0 0.00 0.00 0.00 56 998.3
20210731163601 67 126 12.0 18.0 0.00 0.00 0.00 55 998.3
20210731162701 67 127 11.0 18.0 0.00 0.00 0.00 59 998.4
20210731161801 66 127 12.0 17.0 0.00 0.00 0.00 61 998.4
20210731160901 65 127 14.0 20.0 0.00 0.00 0.00 61 998.6
20210731160001 65 127 12.0 19.0 0.00 0.00 0.00 65 998.7
20210731155101 65 127 11.0 17.0 0.00 0.00 0.00 67 998.5
20210731154201 65 127 11.0 21.0 0.00 0.00 0.00 70 998.5
20210731153301 65 127 9.0 16.0 0.00 0.00 0.00 71 998.6
20210731152401 65 127 8.0 15.0 0.00 0.00 0.00 71 998.6
20210731151501 65 127 8.0 18.0 0.00 0.00 0.00 71 998.7
20210731150601 65 128 8.0 13.0 0.00 0.00 0.00 73 998.5
20210731145701 65 128 5.0 11.0 0.00 0.00 0.00 74 998.4
20210731144801 65 128 5.0 12.0 0.00 0.00 0.00 74 998.4
20210731143901 65 128 6.0 13.0 0.00 0.00 0.00 74 998.4
20210731143001 65 128 6.0 13.0 0.00 0.00 0.00 75 998.5
20210731142101 64 128 7.0 13.0 0.00 0.00 0.00 75 998.6
20210731141201 64 128 6.0 11.0 0.00 0.00 0.00 74 998.6
20210731140301 64 128 5.0 10.0 0.00 0.00 0.00 72 998.8
20210731135401 64 128 7.0 12.0 0.00 0.00 0.00 75 998.8
20210731134501 64 128 8.0 14.0 0.00 0.00 0.00 76 998.9
20210731133601 64 128 8.0 14.0 0.00 0.00 0.00 76 998.9
20210731132701 63 128 8.0 13.0 0.00 0.00 0.00 77 998.9
20210731131801 63 128 5.0 13.0 0.00 0.00 0.00 75 998.8
20210731130901 63 128 8.0 14.0 0.00 0.00 0.00 77 998.9
20210731130001 62 128 10.0 16.0 0.00 0.00 0.00 75 999.0
20210731125101 63 128 8.0 13.0 0.00 0.00 0.00 76 999.1
20210731124201 63 128 8.0 12.0 0.00 0.00 0.00 76 999.0
20210731123301 63 128 7.0 11.0 0.00 0.00 0.00 76 998.9
20210731122401 63 128 6.0 13.0 0.00 0.00 0.00 77 998.9
20210731121501 63 128 5.0 9.0 0.00 0.00 0.00 77 998.9
20210731120601 62 128 6.0 11.0 0.00 0.00 0.00 78 998.9
20210731115701 62 128 7.0 10.0 0.00 0.00 0.00 79 998.8
20210731114801 62 128 7.0 10.0 0.00 0.00 0.00 77 998.8
20210731113901 62 128 7.0 9.0 0.00 0.00 0.00 77 998.7
20210731113001 62 128 6.0 9.0 0.00 0.00 0.00 77 998.8
20210731112101 62 128 8.0 11.0 0.00 0.00 0.00 77 998.7
20210731111201 62 128 8.0 10.0 0.00 0.00 0.00 76 998.8
20210731110301 62 128 6.0 8.0 0.00 0.00 0.00 75 998.7
20210731105401 62 128 3.0 5.0 0.00 0.00 0.00 74 998.6
20210731104501 62 128 4.0 7.0 0.00 0.00 0.00 74 998.6
20210731103601 62 128 4.0 9.0 0.00 0.00 0.00 73 998.5
20210731102701 62 128 7.0 9.0 0.00 0.00 0.00 71 998.5
20210731101801 62 128 10.0 13.0 0.00 0.00 0.00 72 998.6
20210731100901 62 127 12.0 13.0 0.00 0.00 0.00 72 998.5
20210731100001 62 127 12.0 13.0 0.00 0.00 0.00 72 998.4
20210731095101 62 127 13.0 16.0 0.00 0.00 0.00 72 998.4
20210731094201 62 127 13.0 15.0 0.00 0.00 0.00 72 998.2
20210731093301 62 127 11.0 14.0 0.00 0.00 0.00 72 998.2
20210731092401 61 127 11.0 13.0 0.00 0.00 0.00 74 998.1
20210731091501 61 127 11.0 14.0 0.00 0.00 0.00 72 997.9
20210731090601 61 127 12.0 16.0 0.00 0.00 0.00 73 997.8
20210731085701 61 127 15.0 17.0 0.00 0.00 0.00 71 997.8
20210731084801 61 127 13.0 17.0 0.00 0.00 0.00 71 997.7